When you browse on this site, cookies collect data to enhance your experience and personalize the content and advertising you see.
Visit our Privacy Policy to learn more. By continuing to use the site, you agree to this use of cookies and data.
  • In United Kingdom
  • List of Countries
  • For 7 days
  • Water Temperature
  • Weather Map
  • Weather Widgets
  • user-avatar
    Login

    Hourly Weather Nottingham

    Today, 11 December, Wednesday

    Time Temperature Precipitation Wind Pressure Humidity
    00:00 +3°C° 0 mm 6 mps 747 mmHg 78%
    01:00 +3°C° 0 mm 5 mps 747 mmHg 79%
    02:00 +3°C° 0 mm 5 mps 747 mmHg 80%
    03:00 +3°C° 0 mm 5 mps 748 mmHg 81%
    04:00 +3°C° 0 mm 4 mps 747 mmHg 82%
    05:00 +3°C° 0 mm 4 mps 747 mmHg 84%
    06:00 +3°C° 0 mm 4 mps 747 mmHg 85%
    07:00 +3°C° 0 mm 4 mps 747 mmHg 85%
    08:00 +3°C° 0 mm 4 mps 746 mmHg 86%
    09:00 +3°C° 0 mm 4 mps 746 mmHg 86%
    10:00 +4°C° 0 mm 4 mps 745 mmHg 84%
    11:00 +5°C° 0 mm 5 mps 745 mmHg 82%
    12:00 +5°C° 0 mm 5 mps 745 mmHg 79%
    13:00 +5°C° 0.1 mm 4 mps 744 mmHg 81%
    14:00 +4°C° 0.1 mm 4 mps 744 mmHg 83%
    15:00 +4°C° 0.1 mm 3 mps 743 mmHg 85%
    16:00 +4°C° 0.3 mm 3 mps 744 mmHg 86%
    17:00 +3°C° 0.3 mm 3 mps 744 mmHg 87%
    18:00 +2°C° 0.3 mm 3 mps 744 mmHg 89%
    19:00 +2°C° 0 mm 3 mps 744 mmHg 88%
    20:00 +1°C° 0 mm 4 mps 744 mmHg 87%
    21:00 0°C° 0 mm 4 mps 745 mmHg 86%
    22:00 0°C° 0 mm 4 mps 745 mmHg 85%
    23:00 0°C° 0 mm 4 mps 745 mmHg 85%

    Tomorrow, 12 December, Thursday

    Time Temperature Precipitation Wind Pressure Humidity
    00:00 0°C° 0 mm 4 mps 745 mmHg 85%
    01:00 0°C° 0 mm 4 mps 745 mmHg 86%
    02:00 -1°C° 0 mm 4 mps 744 mmHg 87%
    03:00 -1°C° 0 mm 4 mps 744 mmHg 88%
    04:00 0°C° 0 mm 3 mps 744 mmHg 88%
    05:00 0°C° 0 mm 3 mps 743 mmHg 88%
    06:00 0°C° 0 mm 3 mps 743 mmHg 88%
    07:00 -1°C° 0 mm 4 mps 742 mmHg 87%
    08:00 -1°C° 0 mm 4 mps 741 mmHg 87%
    09:00 0°C° 0 mm 5 mps 740 mmHg 87%
    10:00 0°C° 0 mm 5 mps 739 mmHg 85%
    11:00 +1°C° 0 mm 6 mps 737 mmHg 83%
    12:00 +2°C° 0 mm 7 mps 735 mmHg 81%
    13:00 +3°C° 0.6 mm 7 mps 733 mmHg 84%
    14:00 +2°C° 0.6 mm 8 mps 731 mmHg 88%
    15:00 +4°C° 0.6 mm 8 mps 729 mmHg 91%
    16:00 +4°C° 2.2 mm 8 mps 727 mmHg 92%
    17:00 +4°C° 2.2 mm 8 mps 726 mmHg 92%
    18:00 +4°C° 2.2 mm 8 mps 724 mmHg 93%
    19:00 +4°C° 0.7 mm 7 mps 723 mmHg 93%
    20:00 +4°C° 0.7 mm 6 mps 722 mmHg 93%
    21:00 +5°C° 0.7 mm 5 mps 721 mmHg 92%
    22:00 +4°C° 0.5 mm 6 mps 720 mmHg 92%
    23:00 +4°C° 0.5 mm 7 mps 720 mmHg 91%

    Day after tomorrow, 13 December, Friday

    Time Temperature Precipitation Wind Pressure Humidity
    00:00 +4°C° 0.5 mm 8 mps 720 mmHg 90%
    01:00 +4°C° 0.3 mm 8 mps 720 mmHg 89%
    02:00 +3°C° 0.3 mm 9 mps 719 mmHg 88%
    03:00 +3°C° 0.3 mm 9 mps 719 mmHg 86%
    04:00 +3°C° 0.6 mm 9 mps 720 mmHg 86%
    05:00 +3°C° 0.6 mm 9 mps 720 mmHg 86%
    06:00 +3°C° 0.6 mm 10 mps 721 mmHg 86%
    07:00 +3°C° 0.2 mm 9 mps 722 mmHg 85%
    08:00 +4°C° 0.2 mm 8 mps 723 mmHg 84%
    09:00 +4°C° 0.2 mm 7 mps 724 mmHg 83%
    10:00 +4°C° 0.1 mm 7 mps 725 mmHg 82%
    11:00 +4°C° 0.1 mm 7 mps 726 mmHg 81%
    12:00 +5°C° 0.1 mm 7 mps 727 mmHg 80%
    13:00 +5°C° 0 mm 6 mps 727 mmHg 80%
    14:00 +5°C° 0 mm 6 mps 728 mmHg 80%
    15:00 +5°C° 0 mm 6 mps 729 mmHg 80%
    16:00 +5°C° 0 mm 5 mps 729 mmHg 82%
    17:00 +5°C° 0 mm 5 mps 730 mmHg 84%
    18:00 +5°C° 0 mm 4 mps 730 mmHg 85%
    19:00 +4°C° 0 mm 4 mps 730 mmHg 86%
    20:00 +4°C° 0 mm 4 mps 729 mmHg 87%
    21:00 +4°C° 0 mm 4 mps 728 mmHg 88%
    22:00 +4°C° 0.7 mm 4 mps 727 mmHg 89%
    23:00 +3°C° 0.7 mm 5 mps 726 mmHg 91%

    14 December, Saturday

    Time Temperature Precipitation Wind Pressure Humidity
    00:00 +3°C° 0.7 mm 5 mps 724 mmHg 93%
    01:00 +2°C° 0.4 mm 8 mps 724 mmHg 88%
    02:00 +3°C° 0.4 mm 11 mps 724 mmHg 84%
    03:00 +3°C° 0.4 mm 13 mps 724 mmHg 80%
    04:00 +3°C° 0.2 mm 13 mps 725 mmHg 76%
    05:00 +1°C° 0.2 mm 13 mps 726 mmHg 71%
    06:00 0°C° 0.2 mm 13 mps 727 mmHg 67%
    07:00 0°C° 0 mm 12 mps 728 mmHg 65%
    08:00 +1°C° 0 mm 11 mps 730 mmHg 63%
    09:00 -1°C° 0 mm 11 mps 731 mmHg 61%
    10:00 +1°C° 0 mm 11 mps 731 mmHg 61%
    11:00 +1°C° 0 mm 11 mps 732 mmHg 61%
    12:00 +1°C° 0 mm 11 mps 732 mmHg 60%
    13:00 +1°C° 0 mm 11 mps 733 mmHg 61%
    14:00 +1°C° 0 mm 11 mps 734 mmHg 62%
    15:00 +1°C° 0 mm 10 mps 734 mmHg 62%
    16:00 0°C° 0 mm 10 mps 735 mmHg 62%
    17:00 0°C° 0 mm 9 mps 736 mmHg 61%
    18:00 -1°C° 0 mm 9 mps 736 mmHg 60%
    19:00 -1°C° 0 mm 8 mps 737 mmHg 62%
    20:00 -1°C° 0 mm 7 mps 737 mmHg 64%
    21:00 -1°C° 0 mm 6 mps 738 mmHg 65%
    22:00 -1°C° 0 mm 6 mps 737 mmHg 72%
    23:00 0°C° 0 mm 5 mps 737 mmHg 79%

    15 December, Sunday

    Time Temperature Precipitation Wind Pressure Humidity
    00:00 0°C° 0 mm 4 mps 737 mmHg 86%
    01:00 0°C° 0.5 mm 4 mps 735 mmHg 88%
    02:00 +1°C° 0.5 mm 4 mps 734 mmHg 91%
    03:00 +1°C° 0.5 mm 4 mps 732 mmHg 93%
    04:00 +1°C° 1.5 mm 5 mps 732 mmHg 89%
    05:00 0°C° 1.5 mm 7 mps 731 mmHg 85%
    06:00 0°C° 1.5 mm 9 mps 730 mmHg 81%
    07:00 0°C° 0.4 mm 8 mps 732 mmHg 82%
    08:00 -1°C° 0.4 mm 7 mps 734 mmHg 83%
    09:00 -1°C° 0.4 mm 7 mps 735 mmHg 84%
    10:00 0°C° 0 mm 7 mps 737 mmHg 80%
    11:00 0°C° 0 mm 7 mps 738 mmHg 77%
    12:00 +2°C° 0 mm 7 mps 739 mmHg 73%
    13:00 +2°C° 0 mm 6 mps 739 mmHg 74%
    14:00 +2°C° 0 mm 6 mps 740 mmHg 76%
    15:00 +2°C° 0 mm 5 mps 740 mmHg 78%
    16:00 +2°C° 0.4 mm 5 mps 740 mmHg 81%
    17:00 +2°C° 0.4 mm 5 mps 740 mmHg 84%
    18:00 +1°C° 0.4 mm 5 mps 740 mmHg 87%
    19:00 +1°C° 0 mm 5 mps 741 mmHg 85%
    20:00 +1°C° 0 mm 5 mps 741 mmHg 84%
    21:00 +1°C° 0 mm 5 mps 742 mmHg 83%
    22:00 +1°C° 0.4 mm 5 mps 742 mmHg 84%
    23:00 +1°C° 0.4 mm 5 mps 742 mmHg 86%

    16 December, Monday

    Time Temperature Precipitation Wind Pressure Humidity
    00:00 +1°C° 0.4 mm 5 mps 743 mmHg 87%
    01:00 +1°C° 0 mm 4 mps 743 mmHg 87%
    02:00 0°C° 0 mm 4 mps 743 mmHg 87%
    03:00 +1°C° 0 mm 3 mps 743 mmHg 87%
    04:00 +1°C° 0 mm 3 mps 743 mmHg 87%
    05:00 +1°C° 0 mm 3 mps 742 mmHg 87%
    06:00 +1°C° 0 mm 3 mps 742 mmHg 87%
    07:00 +2°C° 0.3 mm 3 mps 742 mmHg 89%
    08:00 +2°C° 0.3 mm 3 mps 742 mmHg 91%
    09:00 +3°C° 0.3 mm 4 mps 742 mmHg 94%
    10:00 +4°C° 0 mm 4 mps 742 mmHg 93%
    11:00 +4°C° 0 mm 3 mps 742 mmHg 91%
    12:00 +5°C° 0 mm 3 mps 742 mmHg 90%
    13:00 +5°C° 0 mm 3 mps 742 mmHg 92%
    14:00 +5°C° 0 mm 2 mps 741 mmHg 93%
    15:00 +6°C° 0 mm 1 mps 741 mmHg 95%
    16:00 +5°C° 0 mm 2 mps 741 mmHg 95%
    17:00 +4°C° 0 mm 2 mps 741 mmHg 94%
    18:00 +4°C° 0 mm 2 mps 741 mmHg 94%
    19:00 +4°C° 0 mm 2 mps 741 mmHg 93%
    20:00 +4°C° 0 mm 2 mps 741 mmHg 92%
    21:00 +3°C° 0 mm 2 mps 741 mmHg 91%
    22:00 +2°C° 0 mm 3 mps 741 mmHg 91%
    23:00 +2°C° 0 mm 3 mps 742 mmHg 90%
    Show more